Regional Weather Roundup
Issued by NWS

Home | Current Version | Previous Version | Graphics & Text | Print | Product List | Glossary On
Versions: 1 2 3 4 5 6 7 8 9 10 11 12 13 14 15 16 17 18 19 20 21 22 23 24 25 26 27 28 29 30 31 32 33 34 35 36 37 38 39 40 41 42 43 44 45 46 47 48 49 50
000
ASUS43 KFSD 092302
RWRSD

WEATHER ROUNDUP FOR SOUTH DAKOTA
NATIONAL WEATHER SERVICE SIOUX FALLS SD
600 PM CDT WED JUL 09 2014

NOTE: "FAIR" INDICATES FEW OR NO CLOUDS BELOW 12,000 FEET WITH NO
SIGNIFICANT WEATHER AND/OR OBSTRUCTIONS TO VISIBILITY.


SDZ001>005-009-010-012>017-100000-
NORTHWEST AND NORTH CENTRAL SOUTH DAKOTA

CITY           SKY/WX    TMP DP  RH WIND       PRES   REMARKS
BUFFALO          N/A     81  54  39 SE14      29.91F
FAITH            N/A     78  54  43 SE12      29.98F
MOBRIDGE       SUNNY     80  49  33 SE8       29.96F HAZE
$$

SDZ012>016-024>037-041>051-057-063-072>074-100000-
SOUTHWEST AND SOUTH CENTRAL SOUTH DAKOTA

CITY           SKY/WX    TMP DP  RH WIND       PRES   REMARKS
RAPID CTY ARPT SUNNY     79  55  43 SE10      29.99F
PIERRE         SUNNY     79  56  45 SE10      29.94F
CUSTER         SUNNY     71  55  56 E12       30.10F
ELLSWORTH AFB  SUNNY     79  55  43 SE14      29.99F
PHILIP         SUNNY     81  54  39 SE12G20   29.96F
PINE RIDGE     SUNNY     79  61  53 E16       29.97F
WINNER         FAIR      73  55  53 SE9       29.99F
$$

SDZ004>011-016>023-039-040-100000-
NORTHEAST SOUTH DAKOTA

CITY           SKY/WX    TMP DP  RH WIND       PRES   REMARKS
ABERDEEN       SUNNY     75  56  51 E7        30.00S
WATERTOWN      MOSUNNY   77  52  41 NW7       30.01F
SISSETON         N/A     77  53  43 VRB5      29.99S
$$

SDZ017-020-022-023-036>040-048>070-100000-
SOUTHEAST SOUTH DAKOTA

CITY           SKY/WX    TMP DP  RH WIND       PRES   REMARKS
SIOUX FALLS    MOSUNNY   82  54  37 NW8       29.99F
HURON          SUNNY     81  56  42 N5        29.97F HAZE
CHAMBERLAIN    SUNNY     80  58  47 S9        29.97F
MITCHELL       SUNNY     83  57  41 NE6       29.97F HAZE
YANKTON        PTSUNNY   81  61  50 SW14      29.99S
$$

ABBREVIATIONS USED IN REMARKS
   TC - TEMPERATURE IN CELSIUS
  WCI - WIND CHILL INDEX
   HX - HEAT INDEX
  VSB - VISIBILITY



USA.gov is the U.S. government's official web portal to all federal, state and local government web resources and services.